Change the Weather History Date:

Wednesday, November 7, 2012

  Actual Average Record
Temperature  
Mean Temperature 47 °F 35 °F  
Max Temperature 64 °F 46 °F 72 °F (2006)
Min Temperature 29 °F 23 °F 3 °F (2003)
Degree Days  
Heating Degree Days 18 30  
Month to date heating degree days 142 201  
Since 1 July heating degree days 968 1195  
Cooling Degree Days 0 0  
Month to date cooling degree days 0 0  
Year to date cooling degree days 329 248  
Moisture  
Dew Point 29 °F    
Average Humidity 58    
Maximum Humidity 85    
Minimum Humidity 30    
Precipitation  
Precipitation T in 0.02 in 0.48 in (1980)
Month to date precipitation T 0.14  
Year to date precipitation 4.27 8.94  
Sea Level Pressure  
Sea Level Pressure 29.93 in    
Wind  
Wind Speed 3 mph (WSW)    
Max Wind Speed 18 mph    
Max Gust Speed 25 mph    
Visibility 10 miles    
Events      
T = Trace of Precipitation, MM = Missing Value Source: NWS Daily Summary

Daily Weather History Graph

Daily Weather History Graph

Search for Another Location

Airport or City:

Trip Planner

Search our weather history database for the weather conditions in past years. The results will help you decide how hot, cold, wet, or windy it might be!

Date:

Astronomy

Nov. 07, 2012 Rise Set
Actual Time 7:23 AM MST 5:17 PM MST
Civil Twilight 6:52 AM MST 5:48 PM MST
Nautical Twilight 6:17 AM MST 6:22 PM MST
Astronomical Twilight 5:43 AM MST 6:57 PM MST
Moon 12:05 AM MST (11/7) 1:43 PM MST (11/7)
Length of Visible Light 10h 55m
Length of Day
9h 54m
Last Quarter, 42% of the Moon is Illuminated
Nov 7
Last Quarter
Nov 13
New
Nov 20
First Quarter
Nov 28
Full
Dec 6
Last Quarter

Hourly Weather History & Observations

Time (MST) Temp. Windchill Dew Point Humidity Pressure Visibility Wind Dir Wind Speed Gust Speed Precip Events Conditions
12:55 AM 33.1 °F - 26.1 °F 75% 30.04 in 10.0 mi Calm Calm - N/A   Clear
1:55 AM 34.0 °F 28.8 °F 26.1 °F 73% 30.02 in 10.0 mi South 5.8 mph - N/A   Clear
2:55 AM 33.1 °F - 26.1 °F 75% 30.02 in 10.0 mi Calm Calm - N/A   Clear
3:55 AM 32.0 °F - 25.0 °F 75% 30.00 in 10.0 mi Calm Calm - N/A   Clear
4:55 AM 28.9 °F 23.9 °F 23.0 °F 78% 30.03 in 10.0 mi NNW 4.6 mph - N/A   Clear
5:55 AM 30.9 °F - 25.0 °F 79% 30.03 in 10.0 mi Calm Calm - N/A   Clear
6:55 AM 28.9 °F - 24.1 °F 82% 30.03 in 10.0 mi Calm Calm - N/A   Partly Cloudy
7:55 AM 32.0 °F - 26.1 °F 79% 30.01 in 10.0 mi Calm Calm - N/A   Mostly Cloudy
8:55 AM 35.1 °F - 27.0 °F 72% 30.01 in 10.0 mi Calm Calm - N/A   Overcast
9:55 AM 37.0 °F - 30.0 °F 76% 30.00 in 10.0 mi Calm Calm - N/A   Partly Cloudy
10:55 AM 39.0 °F - 28.9 °F 67% 29.96 in 10.0 mi Calm Calm - N/A   Clear
11:55 AM 48.0 °F - 30.9 °F 52% 29.89 in 10.0 mi Calm Calm - N/A   Clear
12:55 PM 63.0 °F - 30.0 °F 29% 29.81 in 4.0 mi WSW 13.8 mph 20.7 mph N/A   Haze
1:55 PM 61.0 °F - 32.0 °F 34% 29.81 in 10.0 mi West 9.2 mph 16.1 mph N/A   Mostly Cloudy
2:55 PM 59.0 °F - 32.0 °F 36% 29.83 in 10.0 mi West 8.1 mph - N/A   Clear
3:55 PM 57.0 °F - 30.9 °F 37% 29.85 in 10.0 mi West 15.0 mph 21.9 mph N/A   Partly Cloudy
4:55 PM 54.0 °F - 30.9 °F 41% 29.87 in 10.0 mi East 4.6 mph - N/A   Clear
5:55 PM 54.0 °F - 30.0 °F 40% 29.87 in 10.0 mi SW 8.1 mph 16.1 mph N/A   Clear
6:55 PM 46.0 °F 44.8 °F 34.0 °F 63% 29.91 in 10.0 mi Variable 3.5 mph - N/A   Mostly Cloudy
7:55 PM 46.9 °F - 32.0 °F 56% 29.89 in 10.0 mi South 3.5 mph - N/A   Overcast
8:55 PM 46.9 °F - 30.9 °F 54% 29.87 in 10.0 mi Calm Calm - N/A   Mostly Cloudy
9:55 PM 46.9 °F - 30.9 °F 54% 29.86 in 10.0 mi Calm Calm - N/A   Overcast
10:55 PM 45.0 °F 42.6 °F 30.0 °F 56% 29.85 in 10.0 mi SSW 4.6 mph - N/A   Overcast
11:55 PM 43.0 °F - 30.0 °F 60% 29.80 in 10.0 mi Calm Calm - 0.00 in   Overcast